This is the latest recevied weather packets stored in our database for station/object N0HEQ. If no packets are shown the sender has not sent any weather packets the latest 10 day(s).
| Time | Temp. | Humidity | Pressure | Rain* | Wind** | Luminosity | Snow |
|---|---|---|---|---|---|---|---|
| 1777676813 | 16.67° C | 18% | 1021.5 hPa | 0 mm | - | 340 W/m² | - |
| 1777676511 | 17.78° C | 18% | 1021.4 hPa | 0 mm | - | 278 W/m² | - |
| 1777676208 | 16.67° C | 21% | 1021.8 hPa | 0 mm | - | 299 W/m² | - |
| 1777675905 | 16.67° C | 19% | 1021.5 hPa | 0 mm | - | 390 W/m² | - |
| 1777675601 | 16.67° C | 18% | 1021.6 hPa | 0 mm | - | 404 W/m² | - |
| 1777675299 | 17.22° C | 18% | 1021.8 hPa | 0 mm | - | 418 W/m² | - |
| 1777674995 | 17.22° C | 20% | 1021.5 hPa | 0 mm | - | 435 W/m² | - |
| 1777674692 | 17.22° C | 19% | 1021.5 hPa | 0 mm | - | 458 W/m² | - |
| 1777674389 | 16.67° C | 23% | 1021.6 hPa | 0 mm | - | 480 W/m² | - |
| 1777674086 | 16.67° C | 19% | 1021.5 hPa | 0 mm | - | 501 W/m² | - |
| 1777673782 | 16.11° C | 20% | 1021.8 hPa | 0 mm | - | 510 W/m² | - |
| 1777673479 | 16.67° C | 21% | 1021.8 hPa | 0 mm | - | 534 W/m² | - |
| 1777673177 | 15.56° C | 22% | 1021.5 hPa | 0 mm | - | 543 W/m² | - |
| 1777672873 | 15.56° C | 24% | 1021.6 hPa | 0 mm | - | 564 W/m² | - |
| 1777672570 | 16.67° C | 23% | 1021.8 hPa | 0 mm | - | 575 W/m² | - |
| 1777672265 | 17.22° C | 23% | 1021.6 hPa | 0 mm | - | 565 W/m² | - |
| 1777671961 | 16.67° C | 22% | 1021.8 hPa | 0 mm | - | 277 W/m² | - |
| 1777671656 | 17.22° C | 20% | 1021.9 hPa | 0 mm | - | 612 W/m² | - |
| 1777671353 | 16.67° C | 25% | 1021.8 hPa | 0 mm | - | 620 W/m² | - |
| 1777671050 | 17.78° C | 21% | 1021.9 hPa | 0 mm | - | 631 W/m² | - |
| 1777670746 | 16.67° C | 23% | 1022 hPa | 0 mm | - | 647 W/m² | - |
| 1777670443 | 16.11° C | 23% | 1022.1 hPa | 0 mm | - | 684 W/m² | - |
| 1777670140 | 15° C | 23% | 1022.2 hPa | 0 mm | - | 707 W/m² | - |
| 1777669838 | 15.56° C | 24% | 1022.3 hPa | 0 mm | - | 130 W/m² | - |
| 1777669533 | 16.67° C | 25% | 1022.1 hPa | 0 mm | - | 227 W/m² | - |
* Rain latest hour (hover to see other rain measurements)
** Current wind speed in m/s (hover to see current wind gust speed)